Location: Gisborne
(38.6530°S, 178.0040°E)
Time: 18:57:56
(UTC+13:00)

Cosmos 2322 Rocket - Pass Details

Date: 24 January 2019
Orbit: 834 x 849 km, 71.0° (Epoch: 19 February)

Event Time Altitude Azimuth Distance (km) Brightness Sun altitude
Rises 21:12:42 0° 357° (N) 3,380 5.0 -8.2°
Reaches altitude 10° 21:15:12 10° 2° (N) 2,456 4.3 -8.6°
Maximum altitude 21:20:33 46° 74° (ENE) 1,129 2.5 -9.5°
Drops below altitude 10° 21:26:00 10° 145° (SE) 2,495 4.7 -10.3°
Sets 21:28:33 0° 151° (SSE) 3,440 5.5 -10.7°
